Location: B�rgermoos
(47.6500°N, 9.0667°E)
Time: 07:11:10
(UTC+00:00)

CENTAUR R/B - Pass Details

Date: 18 September 2020
Orbit: 755 x 1433 km, 63.4° (Epoch: 02 October)

Event Time Altitude Azimuth Distance (km) Brightness Sun altitude
Rises 19:23:44 0° 318° (NW) 4,084 7.0 -19.5°
Reaches altitude 10° 19:26:22 10° 321° (NW) 3,205 6.1 -19.9°
Maximum altitude 19:34:19 72° 46° (NE) 1,422 3.2 -21.1°
Enters shadow 19:38:32 34° 122° (ESE) 2,132 3.7 -21.7°
